Вернуться в каталог

STARLINK-37519

АктивенСвязьSSO
NORAD 69298·PAYLOAD·🇺🇸 United States

Запущен May 30, 2026 с Vandenberg Space Force Base

Loading…

Ближайшие Пролёты (ближайшие 24 часа)

TLE

СвежийSource: CelesTrak SupGP

Эпоха: Sep 15, 2026, 04:05 UTC

1 69298C 26119C   26258.17062500 -.00052428  00000+0 -16276-2 0  2581
2 69298  97.2827 282.9383 0001034  94.1184 261.4232 15.33463725    11

Отслеживайте STARLINK-37519 в реальном времени с AllMySat

Download on the App Store